Location: Barcelona
(41.3830°N, 2.1830°E)
Time: 22:53:35
(UTC+02:00)

ISS - Pass Details

Date: 18 July 2017
Orbit: 400 x 408 km, 51.6° (Epoch: 24 July)

Event Time Altitude Azimuth Distance (km) Brightness Sun altitude
Exits shadow 03:01:29 19° 337° (NNW) 1,024 -1.3 -25.9°
Maximum altitude 03:01:43 19° 343° (NNW) 1,019 -1.2 -25.8°
Drops below altitude 10° 03:04:10 10° 32° (NNE) 1,456 -0.1 -25.7°
Sets 03:06:39 0° 51° (NE) 2,318 0.9 -25.6°
